DW7202 Grapeview WA US current weather conditions

sailwx.info

Air temperature 10.6° C
Dewpoint 8.6° C

Last reported at 2020-Aug-12 11:55 UTC.
Time now 2020-Aug-12 13:15 UTC

Location: N 47°18' W 122°54'.
View on Google Maps.

See reports from other nearby stations

  
Tides and Currents Weather Stations Pressure Air Temp Water Temp Dewpoint Dewpoint Depression Visibility Wind Speed Wind Dir Waves Ship Positions
date/time (UTC)wind fromknots sea level pressurealtimeterstation pressurevisibilityair tempwater tempwave heightnotes
2020-Aug-12 11:55 10.6
2020-Aug-12 11:45 10.6
2020-Aug-12 11:35 10.6
2020-Aug-12 11:25 11.1
2020-Aug-12 11:15 11.1
2020-Aug-12 11:05 10.6
2020-Aug-12 10:55 11.1
2020-Aug-12 10:45 11.1
2020-Aug-12 10:35 11.1
2020-Aug-12 10:25 11.1
2020-Aug-12 10:15 11.1
2020-Aug-12 10:05 11.7
2020-Aug-12 09:55 11.7
2020-Aug-12 09:45 11.7
2020-Aug-12 09:35 12.2
2020-Aug-12 09:25 12.2
2020-Aug-12 09:15 12.2
2020-Aug-12 09:05 12.2
2020-Aug-12 08:55 12.2
2020-Aug-12 08:45 12.2
2020-Aug-12 08:35 12.2
2020-Aug-12 08:25 12.2
2020-Aug-12 08:15 12.2
2020-Aug-12 08:05 12.2
2020-Aug-12 07:55 12.8
2020-Aug-12 07:45 12.8
2020-Aug-12 07:35 13.3
2020-Aug-12 07:25 13.9
2020-Aug-12 07:15 203 0 gusting 2 13.9
2020-Aug-12 07:05 13.9
2020-Aug-12 06:55 203 0 gusting 2 13.9
2020-Aug-12 06:45 203 0 gusting 2 14.4
2020-Aug-12 06:35 203 0 gusting 2 14.4
2020-Aug-12 06:25 203 0 gusting 2 14.4
2020-Aug-12 06:15 203 0 gusting 3 14.4
2020-Aug-12 06:05 203 0 gusting 3 15.0
2020-Aug-12 05:55 203 1 gusting 4 15.0
2020-Aug-12 05:45 203 1 gusting 3 15.0
2020-Aug-12 05:35 203 0 gusting 3 15.0
2020-Aug-12 05:25 203 0 gusting 5 15.0
2020-Aug-12 05:15 203 0 gusting 3 15.6
2020-Aug-12 05:05 203 1 gusting 6 15.6
2020-Aug-12 04:55 225 0 gusting 3 15.6
2020-Aug-12 04:45 225 0 gusting 4 15.6
2020-Aug-12 04:35 225 0 gusting 3 16.1
2020-Aug-12 04:25 203 1 gusting 4 16.1
2020-Aug-12 04:15 203 2 gusting 6 16.1
2020-Aug-12 04:05 203 1 gusting 4 16.1
2020-Aug-12 03:55 203 1 gusting 4 16.7
2020-Aug-12 03:45 225 1 gusting 6 16.7
2020-Aug-12 03:35 225 1 gusting 4 17.2
2020-Aug-12 03:25 203 1 gusting 6 17.2
2020-Aug-12 03:15 203 1 gusting 4 17.2
2020-Aug-12 03:05 203 2 gusting 6 17.8
2020-Aug-12 02:55 225 1 gusting 4 17.8
2020-Aug-12 02:45 203 1 gusting 4 18.3
2020-Aug-12 02:35 225 1 gusting 3 18.3
2020-Aug-12 02:25 203 3 gusting 5 18.9
2020-Aug-12 02:15 203 3 gusting 6 18.9
2020-Aug-12 02:05 203 2 gusting 6 19.4
2020-Aug-12 01:55 203 2 gusting 7 19.4
2020-Aug-12 01:45 203 1 gusting 4 19.4
2020-Aug-12 01:35 225 3 gusting 6 19.4
2020-Aug-12 01:25 225 2 gusting 6 20.0
2020-Aug-12 01:15 225 3 gusting 6 20.6
2020-Aug-12 01:05 203 2 gusting 6 20.6
2020-Aug-12 00:55 225 2 gusting 6 20.6
2020-Aug-12 00:45 225 3 gusting 6 20.6
2020-Aug-12 00:35 203 5 gusting 8 21.1
2020-Aug-12 00:25 203 4 gusting 6 21.1
2020-Aug-12 00:15 203 3 gusting 6 21.7
2020-Aug-12 00:05 225 5 gusting 9 22.2
2020-Aug-11 23:55 203 4 gusting 8 22.2
2020-Aug-11 23:45 203 5 gusting 9 22.8
2020-Aug-11 23:35 203 3 gusting 7 23.3
2020-Aug-11 23:25 225 1 gusting 3 23.3
2020-Aug-11 23:15 203 2 gusting 6 23.3
2020-Aug-11 23:05 203 4 gusting 10 22.8
2020-Aug-11 22:55 225 2 gusting 5 23.3
2020-Aug-11 22:45 225 3 gusting 7 23.9
2020-Aug-11 22:35 225 3 gusting 5 23.3
2020-Aug-11 22:25 225 2 gusting 5 23.9
2020-Aug-11 22:15 180 5 gusting 9 22.8
2020-Aug-11 22:05 203 4 gusting 9 23.3
2020-Aug-11 21:55 225 4 gusting 9 23.3
2020-Aug-11 21:45 203 3 gusting 9 23.9
2020-Aug-11 21:35 203 2 gusting 6 24.4
2020-Aug-11 21:25 225 2 gusting 6 23.9
2020-Aug-11 21:15 225 2 gusting 8 24.4
2020-Aug-11 21:05 225 1 gusting 4 23.9
2020-Aug-11 20:55 203 2 gusting 5 22.8
2020-Aug-11 20:45 225 1 gusting 3 23.3
2020-Aug-11 20:35 203 3 gusting 5 22.2
2020-Aug-11 20:25 203 3 gusting 6 22.2
2020-Aug-11 20:15 203 3 gusting 6 21.7
2020-Aug-11 20:05 203 4 gusting 6 21.1
2020-Aug-11 19:55 203 3 gusting 6 20.6
2020-Aug-11 19:45 180 2 gusting 6 20.6
2020-Aug-11 19:35 225 1 gusting 3 20.6
2020-Aug-11 19:25 203 1 gusting 4 20.6
2020-Aug-11 19:15 203 1 gusting 3 20.0
2020-Aug-11 19:05 203 1 gusting 3 19.4
2020-Aug-11 18:55 203 1 gusting 3 18.9
2020-Aug-11 18:45 203 1 gusting 4 18.3
2020-Aug-11 18:35 203 1 gusting 3 17.8
2020-Aug-11 18:25 203 0 gusting 2 17.2
2020-Aug-11 18:15 203 1 gusting 4 16.7
2020-Aug-11 18:05 203 0 gusting 3 16.1
2020-Aug-11 17:55 15.6
2020-Aug-11 17:45 180 0 gusting 2 15.6
2020-Aug-11 17:35 180 0 gusting 2 15.6
2020-Aug-11 17:25 180 0 gusting 2 15.0
2020-Aug-11 17:15 180 0 gusting 1 15.0
2020-Aug-11 17:05 15.0
2020-Aug-11 16:55 180 0 gusting 2 14.4
2020-Aug-11 16:45 180 0 gusting 2 14.4
2020-Aug-11 16:35 14.4
2020-Aug-11 16:25 13.9
2020-Aug-11 16:15 13.9
2020-Aug-11 16:05 13.9
2020-Aug-11 15:55 13.3
2020-Aug-11 15:45 180 1 gusting 3 13.3
2020-Aug-11 15:35 180 2 gusting 5 13.3
2020-Aug-11 15:25 180 2 gusting 3 13.3
2020-Aug-11 15:15 225 2 gusting 5 13.3
2020-Aug-11 15:05 13.3
2020-Aug-11 14:55 13.3
2020-Aug-11 14:45 12.8
2020-Aug-11 14:35 12.8
2020-Aug-11 14:25 12.8
2020-Aug-11 14:15 12.8
2020-Aug-11 14:05 12.8
2020-Aug-11 13:55 12.8
2020-Aug-11 13:45 12.8
2020-Aug-11 13:35 12.8
2020-Aug-11 13:25 12.8
2020-Aug-11 13:15 12.8
2020-Aug-11 13:05 12.8
2020-Aug-11 12:55 12.8
2020-Aug-11 12:45 12.8
2020-Aug-11 12:35 12.8
2020-Aug-11 12:25 12.8
2020-Aug-11 12:15 12.8
2020-Aug-11 12:05 12.8
2020-Aug-11 11:55 12.8
2020-Aug-11 11:45 12.2
2020-Aug-11 11:35 12.2
2020-Aug-11 11:25 12.2
2020-Aug-11 11:15 12.2
2020-Aug-11 11:05 12.2
2020-Aug-11 10:55 12.2
2020-Aug-11 10:45 12.8
2020-Aug-11 10:35 12.8
2020-Aug-11 10:25 12.8
2020-Aug-11 10:15 12.8
2020-Aug-11 10:05 13.3
2020-Aug-11 09:55 13.3
2020-Aug-11 09:45 13.3
2020-Aug-11 09:35 13.3
2020-Aug-11 09:25 13.3
2020-Aug-11 09:15 13.3
2020-Aug-11 09:05 13.3
2020-Aug-11 08:55 13.9
2020-Aug-11 08:45 13.9
2020-Aug-11 08:35 13.9
2020-Aug-11 08:25 13.9
2020-Aug-11 08:15 14.4
2020-Aug-11 08:05 14.4
2020-Aug-11 07:55 14.4
2020-Aug-11 07:45 14.4
2020-Aug-11 07:35 15.0
2020-Aug-11 07:25 15.0
2020-Aug-11 07:15 15.0
2020-Aug-11 07:05 15.6
2020-Aug-11 06:55 15.6
2020-Aug-11 06:45 16.1
2020-Aug-11 06:35 16.1
2020-Aug-11 06:25 16.7
2020-Aug-11 06:15 16.7
2020-Aug-11 06:05 17.2
2020-Aug-11 05:55 17.2
2020-Aug-11 05:45 17.8
2020-Aug-11 05:35 17.8
2020-Aug-11 05:25 18.3
2020-Aug-11 05:15 18.9
2020-Aug-11 05:05 18.9
2020-Aug-11 04:55 19.4
2020-Aug-11 04:45 19.4
2020-Aug-11 04:35 20.0
2020-Aug-11 04:25 20.6
2020-Aug-11 04:15 20.6
2020-Aug-11 04:05 21.1
2020-Aug-11 03:55 21.7
2020-Aug-11 03:45 21.7
2020-Aug-11 03:35 22.2
2020-Aug-11 03:25 22.2
2020-Aug-11 03:15 22.8
2020-Aug-11 03:05 23.3
2020-Aug-11 02:55 23.3
2020-Aug-11 02:45 23.3
2020-Aug-11 02:35 23.9
2020-Aug-11 02:25 24.4
2020-Aug-11 02:15 25.0
2020-Aug-11 02:05 203 0 gusting 1 25.0
2020-Aug-11 01:55 25.0
2020-Aug-11 01:45 25.6
2020-Aug-11 01:35 203 0 gusting 2 25.6
2020-Aug-11 01:25 203 2 gusting 5 25.6
2020-Aug-11 01:15 203 0 gusting 3 26.1
2020-Aug-11 01:05 203 0 gusting 3 25.6
2020-Aug-11 00:55 25.0
2020-Aug-11 00:45 068 1 gusting 3 25.0
2020-Aug-11 00:35 045 0 gusting 2 26.1
2020-Aug-11 00:25 068 2 gusting 6 26.7
2020-Aug-11 00:15 068 3 gusting 6 26.1
2020-Aug-11 00:05 068 3 gusting 6 26.7
2020-Aug-10 23:55 068 3 gusting 4 26.1
2020-Aug-10 23:45 068 3 gusting 6 26.7
2020-Aug-10 23:35 068 3 gusting 6 26.7
2020-Aug-10 23:25 068 4 gusting 6 26.1
2020-Aug-10 23:15 068 4 gusting 6 26.1
2020-Aug-10 23:05 068 3 gusting 6 26.1
2020-Aug-10 22:55 068 3 gusting 6 25.6
2020-Aug-10 22:45 068 3 gusting 4 25.6
2020-Aug-10 22:35 068 2 gusting 4 25.0
2020-Aug-10 22:25 068 3 gusting 6 25.0
2020-Aug-10 22:15 068 4 gusting 6 25.0
2020-Aug-10 22:05 068 2 gusting 4 25.6
2020-Aug-10 21:55 068 2 gusting 4 25.0
2020-Aug-10 21:45 068 2 gusting 3 24.4
2020-Aug-10 21:35 068 2 gusting 4 24.4
2020-Aug-10 21:25 068 3 gusting 6 23.9
2020-Aug-10 21:15 068 3 gusting 4 24.4
2020-Aug-10 21:05 068 2 gusting 4 24.4
2020-Aug-10 20:55 068 3 gusting 6 24.4
2020-Aug-10 20:45 068 2 gusting 4 24.4
2020-Aug-10 20:35 068 1 gusting 3 25.0
2020-Aug-10 20:25 068 1 gusting 3 24.4
2020-Aug-10 20:15 068 2 gusting 3 24.4
2020-Aug-10 20:05 068 2 gusting 3 23.9
2020-Aug-10 19:55 068 1 gusting 2 23.9
2020-Aug-10 19:45 068 2 gusting 3 23.3
2020-Aug-10 19:35 068 2 gusting 3 23.3
2020-Aug-10 19:25 068 2 gusting 4 23.3
2020-Aug-10 19:15 068 2 gusting 3 23.3
2020-Aug-10 19:05 068 2 gusting 4 22.8
2020-Aug-10 18:55 068 2 gusting 4 22.8
2020-Aug-10 18:45 068 2 gusting 3 22.2
2020-Aug-10 18:35 068 2 gusting 3 21.7
2020-Aug-10 18:25 068 3 gusting 3 21.7
2020-Aug-10 18:15 068 2 gusting 3 21.7
2020-Aug-10 18:05 068 1 gusting 1 21.1
2020-Aug-10 17:55 068 2 gusting 2 21.1
2020-Aug-10 17:45 068 1 gusting 2 21.1
2020-Aug-10 17:35 068 1 gusting 2 20.6
2020-Aug-10 17:25 068 1 gusting 2 20.0
2020-Aug-10 17:15 068 1 gusting 2 20.0
2020-Aug-10 17:05 068 1 gusting 2 20.0
2020-Aug-10 16:55 068 1 gusting 2 19.4
2020-Aug-10 16:45 068 1 gusting 2 18.3
2020-Aug-10 16:35 068 0 gusting 1 17.8
2020-Aug-10 16:25 068 0 gusting 1 17.8
2020-Aug-10 16:15 17.2
2020-Aug-10 16:05 16.7
2020-Aug-10 15:55 16.1
2020-Aug-10 15:45 15.6
2020-Aug-10 15:35 15.0
2020-Aug-10 15:25 14.4
2020-Aug-10 15:15 13.9
2020-Aug-10 15:05 13.3
2020-Aug-10 14:55 13.3
2020-Aug-10 14:45 12.8
2020-Aug-10 14:35 12.8
2020-Aug-10 14:25 12.2
2020-Aug-10 14:15 12.2
2020-Aug-10 14:05 11.7
2020-Aug-10 13:55 11.7
2020-Aug-10 13:45 11.7
2020-Aug-10 13:35 11.7
2020-Aug-10 13:25 11.7
2020-Aug-10 13:15 11.7
2020-Aug-10 13:05 11.7